[[[{"header":{"parameterUnit":"kt","parameterCategory":2,"dx":1,"dy":1,"la1":30.253999710083008,"la2":30.299108505249023,"lo1":-89.0895004272461,"lo2":-89.04439544677734,"nx":28,"ny":28,"refTime":"2022-10-24T21:00:00:Z","depth":0,"parameterNumber":1,"parameterNumberName":"U-component_of_WINDS"},"data":[1.0867,1.0867,1.0823,1.0804,1.0761,1.0741,1.072,1.0689,1.0653,1.0626,1.0604,1.056,1.0509,1.0473,1.0448,1.043,1.0424,1.0457,1.0431,1.0318,1.03,1.0283,1.0279,1.0456,1.0456,1.0555,1.0556,1.0556,1.0793,1.075,1.0725,1.0672,1.0652,1.0592,1.0546,1.0534,1.0519,1.0474,1.0448,1.0422,1.0396,1.0331,1.03,1.0303,1.0275,1.0298,1.0298,1.0292,1.0169,1.0166,1.0321,1.0321,1.0321,1.0321,1.0321,1.0321,1.0646,1.0648,1.0588,1.0561,1.0521,1.0487,1.0481,1.0426,1.0403,1.0362,1.0313,1.0295,1.0243,1.0183,1.0152,1.0139,1.0106,1.0118,1.0122,1.0127,1.0139,1.0009,1.0131,1.0131,1.013,1.0129,1.0129,0,1.0525,1.0487,1.0459,1.0419,1.0397,1.0362,1.0322,1.0317,1.0222,1.0207,1.0183,1.0161,1.012,1.0094,1.0054,1.0019,0.9959,0.9946,0.9955,0.9981,1.0009,0.9998,0.9803,0.9944,0.9942,0.9941,0.994,0.9939,1.0376,1.0382,1.0296,1.0284,1.0249,1.023,1.021,1.0124,1.0107,1.0047,1.0054,1.0024,0.9997,0.9967,0.9905,0.9875,0.9846,0.9905,0.9841,0.9865,0.9851,0.9853,0.9854,0.992,0.9923,0.9925,0.9926,0,1.0298,1.0221,1.0215,1.0129,1.0108,1.0119,1.0047,1.0045,0.9991,0.9982,0.9975,0.9891,0.987,0.9796,0.9756,0.9719,0.9744,0.9714,0.9762,0.9753,0.9802,0.9799,0.9963,0.9981,0.9794,0.9796,0.9797,0,1.0143,1.0153,1.0039,1.0039,1.0049,0.9961,0.9974,0.9928,0.9878,0.987,0.9787,0.9782,0.9687,0.9673,0.9618,0.9624,0.9615,0.9589,0.9575,0.9598,0.9602,0.9591,0.9584,0.9538,0.9537,0.9536,0.9536,0,1.003,0.9979,0.9978,0.9955,0.9864,0.9866,0.9829,0.9772,0.9753,0.9716,0.9703,0.9668,0.9649,0.9624,0.9554,0.9514,0.9558,0.9488,0.9531,0.9534,0.9547,0.9548,0.9708,0.9535,0.9534,0.9534,0.9534,0,0.9893,0.9853,0.9863,0.9786,0.9776,0.9776,0.9733,0.9715,0.9661,0.9625,0.9596,0.9532,0.9528,0.9465,0.946,0.9428,0.9415,0.9388,0.9389,0.9387,0.9319,0.9424,0.9581,0.9596,0.9383,0.9381,0.938,0,0.9787,0.9774,0.9697,0.9709,0.9693,0.9599,0.9597,0.9551,0.9502,0.9484,0.943,0.941,0.9347,0.9331,0.9337,0.9283,0.9325,0.9275,0.9256,0.9256,0.9276,0.9418,0.9462,0.9554,0.9363,0.9365,0.9366,0,0.9695,0.958,0.9587,0.9557,0.9478,0.9463,0.9461,0.942,0.9412,0.9368,0.9366,0.9334,0.9286,0.9259,0.9203,0.9215,0.9294,0.9161,0.9159,0.9191,0.9346,0.9388,0.9404,0.9254,0.9256,0.9258,0.9352,0,0.9511,0.9493,0.9508,0.9441,0.9417,0.9419,0.9335,0.9322,0.9269,0.9217,0.9212,0.9153,0.9114,0.911,0.9059,0.9106,0.9087,0.9036,0.8971,0.9064,0.9093,0.9105,0.8934,0.8931,0.8929,0.8928,0,0,0.9431,0.9402,0.9316,0.9308,0.9283,0.9185,0.9194,0.9159,0.909,0.9076,0.9038,0.8986,0.8941,0.8943,0.8966,0.8948,0.8951,0.8921,0.9019,0.903,0.904,0.9072,0.9086,0.8924,0.8923,0.8923,0.8922,0,0.9346,0.9296,0.9304,0.9262,0.9197,0.914,0.9142,0.9061,0.9028,0.9019,0.8941,0.8927,0.8887,0.885,0.8827,0.8917,0.8861,0.8911,0.8988,0.9002,0.9015,0.9026,0.9062,0.9075,0.8917,0.8917,0.8918,0,0.9243,0.9181,0.9175,0.9109,0.9066,0.9051,0.8961,0.8948,0.8937,0.8832,0.8826,0.8783,0.8726,0.8738,0.874,0.8706,0.8784,0.8743,0.8754,0.8753,0.8762,0.8779,0.8793,0.8606,0.8605,0.8604,0,0,0.9182,0.9163,0.9069,0.9084,0.9063,0.8977,0.896,0.8905,0.8853,0.8834,0.8777,0.8731,0.8707,0.8693,0.8666,0.8689,0.8673,0.8708,0.8723,0.8735,0.8742,0.8754,0.877,0.8602,0.8601,0.8601,0,0,0.9153,0.9044,0.8998,0.9005,0.8958,0.8868,0.8882,0.8825,0.8791,0.8782,0.869,0.8674,0.8683,0.8644,0.8615,0.8642,0.8579,0.8584,0.8667,0.8685,0.8699,0.871,0.8517,0,0,0,0,0,0.9023,0.9057,0.9017,0.9005,0.8922,0.889,0.8879,0.8803,0.876,0.8773,0.8716,0.8655,0.861,0.8582,0.8574,0.8607,0.8565,0.8571,0.8578,0.869,0.8709,0.8725,0,0,0,0,0,0,0.9017,0.9003,0.9016,0.8929,0.8909,0.8888,0.8799,0.8779,0.8756,0.8745,0.8667,0.8652,0.8588,0.8582,0.8575,0.8609,0.8519,0.8567,0.8573,0.8578,0.8697,0.8712,0.8726,0,0,0,0,0,0.9013,0.9001,0.8887,0.8928,0.8911,0.8817,0.8797,0.8779,0.8761,0.8673,0.8655,0.8705,0.8591,0.858,0.8577,0.8613,0.8523,0.8521,0.8571,0.8575,0.8579,0.8704,0,0,0,0,0,0,0.9009,0.8986,0.8882,0.8874,0.8908,0.8817,0.8799,0.878,0.8689,0.8672,0.8706,0.8698,0.8594,0.8585,0.8577,0.8619,0.8527,0.8524,0.8523,0.8574,0.8578,0.8581,0,0,0,0,0,0,0.8992,0.898,0.8878,0.8858,0.8847,0.8817,0.8802,0.8788,0.8689,0.8727,0.8717,0.8703,0.8606,0.8588,0.8582,0.8563,0.8529,0.8527,0.8526,0.8525,0.8577,0.858,0,0,0,0,0,0,0.8986,0.8976,0.8859,0.8851,0.8841,0.8747,0.8803,0.8724,0.8669,0.8733,0.8662,0.8659,0.8612,0.8603,0.8586,0.857,0.8565,0.8529,0.8528,0.8527,0.8526,0,0,0,0,0,0,0,0.8981,0.9065,0.8929,0.8845,0.8837,0.8802,0.88,0.8797,0.8668,0.8666,0.8663,0.866,0.8541,0.8539,0.8536,0.8576,0,0,0.8529,0.8528,0,0,0,0,0,0,0,0,0.9067,0.9065,0.8929,0.8927,0.8925,0.8801,0.88,0.8798,0.8668,0.8666,0.8663,0.8661,0.854,0.8539,0.8537,0,0,0,0,0,0,0,0,0,0,0,0,0,0,0,0.8928,0.8927,0,0.8801,0.88,0.8798,0.8668,0.8666,0.8664,0.8662,0.854,0.8538,0.8537,0,0,0,0,0,0,0,0,0,0,0,0,0,0,0,0,0,0,0,0,0,0,0,0,0,0,0,0,0,0,0,0,0,0,0,0,0,0,0,0,0,0,0,0,0,0,0,0,0,0,0,0,0,0,0,0,0,0,0,0,0,0,0,0,0,0,0,0,0]}],[{"header":{"parameterUnit":"kt","parameterCategory":2,"dx":1,"dy":1,"la1":30.253999710083008,"la2":30.299108505249023,"lo1":-89.0895004272461,"lo2":-89.04439544677734,"nx":28,"ny":28,"refTime":"2022-10-24T21:00:00:Z","depth":0,"parameterNumber":2,"parameterNumberName":"V-component_of_WINDS"},"data":[15.9279,15.9258,15.9232,15.9195,15.9164,15.9134,15.9114,15.9085,15.9053,15.9013,15.8984,15.8951,15.8905,15.8862,15.8827,15.8812,15.88,15.8818,15.8797,15.8747,15.8738,15.873,15.8734,15.8816,15.8816,15.8852,15.8853,15.8853,15.9259,15.9229,15.9201,15.9153,15.9129,15.9098,15.9056,15.9037,15.9009,15.8969,15.8937,15.8896,15.8859,15.8804,15.8763,15.8751,15.8731,15.8743,15.8742,15.8735,15.8682,15.8687,15.876,15.876,15.876,15.876,15.876,15.876,15.9216,15.9204,15.9158,15.9125,15.9092,15.906,15.9042,15.9001,15.897,15.8922,15.8889,15.8855,15.8805,15.8735,15.8702,15.8674,15.8654,15.8654,15.8654,15.8656,15.8664,15.8623,15.8664,15.8664,15.8663,15.8663,15.8663,0,15.9175,15.9152,15.9119,15.908,15.9053,15.9018,15.8979,15.8967,15.8899,15.8875,15.8837,15.8809,15.8753,15.8712,15.8662,15.8625,15.8583,15.8573,15.8573,15.859,15.8616,15.8605,15.8522,15.857,15.8569,15.8569,15.8568,15.8568,15.913,15.9116,15.905,15.9032,15.9001,15.8971,15.8946,15.8886,15.8861,15.8802,15.8792,15.8749,15.8712,15.8652,15.8595,15.855,15.8528,15.8552,15.852,15.8541,15.8531,15.8533,15.8532,15.8558,15.8559,15.856,15.8561,0,15.9109,15.9056,15.9023,15.8955,15.8937,15.8926,15.8866,15.8848,15.8805,15.8774,15.8762,15.8693,15.8654,15.8592,15.853,15.8499,15.8481,15.846,15.8502,15.8494,15.8511,15.8511,15.8567,15.8573,15.8486,15.8487,15.8488,0,15.9049,15.9031,15.8953,15.8936,15.8916,15.8854,15.8835,15.8795,15.8747,15.8721,15.8664,15.864,15.8562,15.853,15.8483,15.8456,15.8443,15.8417,15.8405,15.8423,15.8426,15.8404,15.8401,15.8373,15.8373,15.8373,15.8373,0,15.902,15.8954,15.8927,15.8902,15.8822,15.8811,15.8776,15.872,15.8692,15.8647,15.8629,15.8579,15.8551,15.8513,15.8453,15.8435,15.8417,15.8378,15.839,15.8392,15.8386,15.8387,15.8456,15.8372,15.8372,15.8372,15.8372,0,15.8961,15.8919,15.8885,15.8819,15.8802,15.8782,15.873,15.8698,15.8641,15.861,15.8572,15.8523,15.8491,15.8459,15.8415,15.8409,15.8386,15.8357,15.8356,15.8348,15.8313,15.8362,15.8433,15.8439,15.8346,15.8345,15.8345,0,15.8945,15.8894,15.8839,15.8806,15.8774,15.8712,15.8688,15.8638,15.8594,15.8559,15.8508,15.8466,15.8428,15.8405,15.8392,15.8336,15.8344,15.8333,15.8282,15.8281,15.8303,15.8368,15.8394,15.8425,15.8341,15.8341,15.8342,0,15.8924,15.8825,15.8822,15.8792,15.8714,15.8683,15.8655,15.86,15.858,15.8526,15.8501,15.8436,15.8407,15.8367,15.8318,15.8307,15.8337,15.8274,15.8271,15.829,15.8331,15.8359,15.8364,15.8307,15.8308,15.8308,15.8338,0,15.8853,15.8816,15.8807,15.8735,15.8701,15.8673,15.8604,15.8578,15.8537,15.8489,15.8447,15.838,15.8318,15.8304,15.8259,15.8254,15.8244,15.8209,15.817,15.8213,15.8221,15.8224,15.8165,15.8163,15.8162,15.8161,0,0,15.8851,15.8796,15.8731,15.87,15.8667,15.8598,15.8575,15.8533,15.8449,15.8428,15.8407,15.8305,15.8249,15.8205,15.8212,15.8185,15.8178,15.8162,15.8192,15.8196,15.82,15.821,15.8215,15.8158,15.8158,15.8157,15.8157,0,15.881,15.8761,15.8739,15.8694,15.8625,15.8574,15.8569,15.8485,15.8452,15.8407,15.8346,15.831,15.8225,15.8178,15.8142,15.8168,15.8121,15.8153,15.8194,15.8181,15.8187,15.8192,15.8204,15.8209,15.8153,15.8154,15.8154,0,15.8777,15.8718,15.8699,15.8618,15.8569,15.8533,15.8479,15.844,15.8412,15.8328,15.8284,15.8236,15.8162,15.8126,15.8107,15.8085,15.8074,15.8061,15.8067,15.8062,15.8046,15.8053,15.806,15.7978,15.7978,15.7978,0,0,15.875,15.8714,15.8626,15.8603,15.8578,15.8499,15.847,15.8424,15.8361,15.8336,15.8271,15.821,15.8161,15.8129,15.8078,15.8048,15.8027,15.8042,15.8051,15.8058,15.8057,15.8043,15.805,15.7977,15.7977,15.7976,0,0,15.8735,15.8634,15.8603,15.8567,15.8512,15.842,15.8408,15.8366,15.8312,15.8306,15.8221,15.82,15.8165,15.8117,15.8113,15.8062,15.8025,15.8024,15.8094,15.8103,15.8111,15.8122,15.8041,0,0,0,0,0,15.8654,15.8647,15.8621,15.8604,15.8495,15.8436,15.8422,15.8354,15.8332,15.8325,15.8264,15.8214,15.8099,15.8093,15.8075,15.8079,15.7963,15.7965,15.7968,15.805,15.8061,15.807,0,0,0,0,0,0,15.8647,15.8627,15.8621,15.853,15.8504,15.8436,15.8384,15.8365,15.8331,15.8323,15.8228,15.8211,15.8149,15.8097,15.8082,15.8088,15.8045,15.7964,15.7966,15.7968,15.8054,15.8063,15.807,0,0,0,0,0,15.8641,15.8625,15.8469,15.8529,15.8507,15.8416,15.8383,15.8367,15.8339,15.8243,15.8225,15.8291,15.8151,15.8133,15.8088,15.8096,15.8055,15.805,15.7965,15.7967,15.7968,15.8058,0,0,0,0,0,0,15.8637,15.8608,15.8463,15.8454,15.8526,15.8418,15.8399,15.8369,15.826,15.8242,15.8302,15.8297,15.8152,15.8138,15.8125,15.8104,15.8063,15.8058,15.8054,15.7967,15.7968,15.7969,0,0,0,0,0,0,15.8616,15.8601,15.8458,15.8458,15.8448,15.8421,15.8404,15.8352,15.8259,15.8324,15.8317,15.8301,15.817,15.8142,15.8131,15.8054,15.8069,15.8064,15.806,15.8058,15.7968,15.7969,0,0,0,0,0,0,15.8608,15.8595,15.846,15.8452,15.8443,15.8334,15.8373,15.8265,15.8264,15.833,15.8262,15.826,15.8175,15.8163,15.8136,15.8063,15.8056,15.8069,15.8065,15.8063,15.8061,0,0,0,0,0,0,0,15.8602,15.8709,15.8519,15.8447,15.8439,15.8368,15.8366,15.8363,15.8264,15.8263,15.8262,15.8261,15.8098,15.8093,15.8087,15.8071,0,0,15.8069,15.8067,0,0,0,0,0,0,0,0,15.8713,15.871,15.8518,15.8516,15.8515,15.8368,15.8366,15.8364,15.8264,15.8263,15.8262,15.8261,15.8097,15.8092,15.8087,0,0,0,0,0,0,0,0,0,0,0,0,0,0,0,15.8518,15.8517,0,15.8368,15.8366,15.8364,15.8264,15.8263,15.8262,15.8262,15.8095,15.8092,15.8088,0,0,0,0,0,0,0,0,0,0,0,0,0,0,0,0,0,0,0,0,0,0,0,0,0,0,0,0,0,0,0,0,0,0,0,0,0,0,0,0,0,0,0,0,0,0,0,0,0,0,0,0,0,0,0,0,0,0,0,0,0,0,0,0,0,0,0,0,0]}]]]